Location: Complexul Astronomic Baia Mare
(47.6577°N, 23.5639°E)
Time: 05:47:00
(UTC+03:00)

ISS - Pass Details

Date: 14 March 2017
Orbit: 399 x 409 km, 51.6° (Epoch: 30 March)

Event Time Altitude Azimuth Distance (km) Brightness Sun altitude
Exits shadow 05:16:22 22° 305° (NW) 947 -2.3 -15.0°
Maximum altitude 05:18:01 39° 2° (N) 628 -2.8 -14.7°
Drops below altitude 10° 05:21:11 10° 74° (ENE) 1,480 0.5 -14.2°
Sets 05:23:21 0° 82° (E) 2,342 2.0 -13.8°
